Flag for Germany Past Weather in Brandenburg an der Havel, Brandenburg, Germany — Yesterday and Last 2 Weeks

Now
68 °F

Scattered clouds.


Feels Like: 68 °F
Forecast: 56 / 71 °F
Wind: 5 mph from Southeast

Location: Berlin-Tegel

Current Time: Jul 31, 2016 at 9:21:43 AM

Latest Report: Jul 31, 2016 at 8:50 AM


Visibility: N/A

Pressure: 29.86 "Hg

Humidity: 69%

Dew Point: 57 °F

Location of Brandenburg an der HavelLocation

Past Weather in Brandenburg an der Havel — Graph

°F

Brandenburg an der Havel Temperature Yesterday

Maximum temperature yesterday: 77 °F (at 4:20 PM)
Minimum temperature yesterday: 64 °F (at 3:50 AM)
Average temperature yesterday: 70 °F

High & Low Weather Summary for the Past Weeks

 TemperatureHumidityPressure
High88 °F (Jul 25, 2:20 PM)94% (Jul 27, 4:50 PM)30.24 "Hg (Jul 27, 4:50 PM)
Low57 °F (Jul 31, 5:50 AM)13% (Jul 22, 2:50 PM)29.83 "Hg (Jul 29, 5:20 PM)
Average71 °F61%30.03 "Hg
* Reported Jul 16 8:20 AM — Jul 31 8:20 AM, Brandenburg an der Havel, Weather by CustomWeather, © 2016

Note: Actual official high and low records may vary slightly from our data, if they occured in-between our weather recording intervals... More about our weather records

Advertising

Brandenburg an der Havel Weather History for the Previous 24 Hours

Scroll right to see more
 ConditionsComfort  
Time TempWeatherWind HumidityBarometerVisibility
8:20 AM
Sun, Jul 31
66 °FPassing clouds.5 mph73%29.89 "HgN/A
7:50 AM66 °FPassing clouds.3 mph73%29.89 "HgN/A
7:20 AM64 °FSunny.5 mph78%29.86 "Hg10 mi
6:50 AM63 °FSunny.2 mph88%29.89 "Hg10 mi
6:20 AM61 °FClear.No wind88%29.89 "Hg10 mi
5:50 AM57 °FClear.3 mph88%29.89 "Hg10 mi
5:20 AM59 °FFog.2 mph94%29.89 "HgN/A
4:50 AM59 °FFog.1 mph88%29.89 "HgN/A
4:20 AM59 °FClear.No wind88%29.89 "Hg10 mi
3:50 AM61 °FClear.No wind88%29.89 "Hg10 mi
3:20 AM63 °FClear.1 mph83%29.89 "Hg10 mi
2:50 AM61 °FClear.1 mph88%29.89 "Hg10 mi
2:20 AM59 °FClear.1 mph88%29.89 "Hg10 mi
1:50 AM61 °FClear.1 mph83%29.89 "Hg10 mi
1:20 AM61 °FClear.2 mph83%29.89 "Hg10 mi
12:50 AM63 °FClear.2 mph83%29.89 "Hg10 mi
12:20 AM64 °FClear.2 mph73%29.89 "Hg10 mi
11:50 PM
Sat, Jul 30
66 °FClear.2 mph68%29.89 "Hg10 mi
11:20 PM68 °FClear.2 mph64%29.89 "Hg10 mi
10:50 PM68 °FClear.2 mph64%29.89 "Hg10 mi
10:20 PM68 °FPassing clouds.3 mph64%29.89 "HgN/A
9:50 PM70 °FPassing clouds.7 mph60%29.89 "HgN/A
9:20 PM68 °FSunny.7 mph64%29.86 "Hg10 mi
8:50 PM72 °FSunny.6 mph57%29.86 "Hg10 mi
8:20 PM73 °FSprinkles. Scattered clouds.7 mph57%29.86 "HgN/A
7:50 PM73 °FSunny.10 mph53%29.86 "Hg10 mi
7:20 PM75 °FPassing clouds.12 mph47%29.86 "HgN/A
6:50 PM75 °FSunny.12 mph47%29.86 "Hg10 mi
6:20 PM77 °FPassing clouds.13 mph44%29.86 "HgN/A
5:50 PM75 °FPassing clouds.10 mph47%29.86 "HgN/A
5:20 PM75 °FScattered clouds.12 mph44%29.86 "HgN/A
4:50 PM75 °FScattered clouds.10 mph44%29.86 "HgN/A
4:20 PM77 °FPassing clouds.9 mph44%29.86 "HgN/A
3:50 PM75 °FScattered clouds.10 mph47%29.86 "HgN/A
3:20 PM73 °FPartly sunny.12 mph50%29.86 "HgN/A
2:50 PM75 °FBroken clouds.12 mph50%29.86 "HgN/A
2:20 PM73 °FBroken clouds.12 mph53%29.86 "HgN/A
1:50 PM73 °FPartly sunny.10 mph53%29.86 "HgN/A
1:20 PM73 °FPartly sunny.10 mph57%29.89 "HgN/A
12:50 PM73 °FBroken clouds.12 mph53%29.86 "HgN/A
12:20 PM70 °FPartly sunny.12 mph57%29.89 "HgN/A
11:50 AM70 °FPartly sunny.13 mph60%29.89 "HgN/A
11:20 AM72 °FPartly sunny.14 mph57%29.89 "HgN/A
10:50 AM72 °FPartly sunny.13 mph57%29.89 "HgN/A
10:20 AM72 °FBroken clouds.12 mph61%29.89 "HgN/A
9:50 AM70 °FPartly sunny.12 mph64%29.89 "HgN/A
9:20 AM70 °FPartly sunny.12 mph64%29.89 "HgN/A
Weather by CustomWeather, © 2016

See weather overviewHow to use our weather pages